Location: Julian California
(33.0790°N, 116.6010°W)
Time: 10:58:04
(UTC-07:00)

COSMOS 2406 - Pass Details

Date: 19 May 2017
Orbit: 842 x 865 km, 71.0° (Epoch: 25 September)

Event Time Altitude Azimuth Distance (km) Brightness Sun altitude
Exits shadow 21:43:59 30° 186° (S) 1,489 4.1 -21.9°
Maximum altitude 21:46:54 72° 108° (ESE) 896 3.1 -22.3°
Drops below altitude 10° 21:52:34 10° 25° (NNE) 2,481 5.9 -23.1°
Sets 21:55:02 0° 23° (NNE) 3,417 6.7 -23.5°
